Montreal, Quebec

5:24 PM EDT on April 27, 2017 (GMT -0400)
Montreal-Pierre Elliott Trudeau Int'l Airport

Weather History for CYUL - November, 2013

Change the Weather History Date:

Wednesday, November 6, 2013

  Actual Average Record
Temperature  
Mean Temperature 46 °F -  
Max Temperature 55 °F 38 °F 67 °F (2015)
Min Temperature 37 °F 25 °F 21 °F (2012)
Degree Days  
Heating Degree Days 19    
Moisture  
Dew Point 39 °F    
Average Humidity 67    
Maximum Humidity 82    
Minimum Humidity 44    
Precipitation  
Precipitation 0.20 in 0.12 in - ()
Sea Level Pressure  
Sea Level Pressure 30.09 in    
Wind  
Wind Speed 8 mph ()    
Max Wind Speed 22 mph    
Max Gust Speed 29 mph    
Visibility 14.5 miles    
Events Rain    
Averages and records for this station are not official NWS values.
T = Trace of Precipitation, MM = Missing Value Source: Averaged Metar Reports

Daily Weather History Graph

Daily Weather History Graph

Search for Another Location

Airport or City:

Trip Planner

Search our weather history database for the weather conditions in past years. The results will help you decide how hot, cold, wet, or windy it might be!

Date:

Astronomy

Nov. 06, 2013 Rise Set
Actual Time 6:41 AM EST 4:34 PM EST
Civil Twilight 6:10 AM EST 5:06 PM EST
Nautical Twilight 5:35 AM EST 5:41 PM EST
Astronomical Twilight 5:00 AM EST 6:16 PM EST
Moon 9:58 AM EST (11/6) 7:32 PM EST (11/6)
Length of Visible Light 10h 55m
Length of Day
9h 53m
Waxing Crescent, 13% of the Moon is Illuminated
Nov 6
Waxing Crescent
Nov 10
First Quarter
Nov 17
Full
Nov 25
Last Quarter
Dec 2
New

Hourly Weather History & Observations

Time (EST) Temp. Windchill Dew Point Humidity Pressure Visibility Wind Dir Wind Speed Gust Speed Precip Events Conditions
12:00 AM 41.0 °F 37.1 °F 32.0 °F 70% 30.37 in 15.0 mi SE 5.8 mph - N/A   Mostly Cloudy
1:00 AM 42 °F - 34 °F 63% 30.36 in 15 mi SE 4.6 mph - -   Mostly Cloudy
1:00 AM 42.8 °F 40.1 °F 33.8 °F 70% 30.36 in 15.0 mi SSE 4.6 mph - N/A   Mostly Cloudy
2:00 AM 41.0 °F 39.0 °F 33.8 °F 76% 30.35 in 15.0 mi SSE 3.5 mph - N/A   Scattered Clouds
3:00 AM 41.0 °F 38.0 °F 33.8 °F 76% 30.34 in 15.0 mi SE 4.6 mph - N/A   Mostly Cloudy
4:00 AM 41.0 °F 39.0 °F 33.8 °F 76% 30.32 in 15.0 mi SE 3.5 mph - N/A   Mostly Cloudy
5:00 AM 39.2 °F - 33.8 °F 81% 30.31 in 15.0 mi Calm Calm - N/A   Overcast
6:00 AM 41.0 °F 36.4 °F 35.6 °F 81% 30.29 in 15.0 mi SE 6.9 mph - N/A   Overcast
7:00 AM 42 °F - 36 °F 70% 30.28 in 28 mi SE 6.9 mph - -   Overcast
7:00 AM 42.8 °F 38.6 °F 35.6 °F 76% 30.27 in 30.0 mi SE 6.9 mph - N/A   Overcast
8:00 AM 44.6 °F 40.2 °F 35.6 °F 71% 30.24 in 30.0 mi SE 8.1 mph - N/A   Overcast
9:00 AM 46.4 °F 44.3 °F 37.4 °F 71% 30.22 in 30.0 mi SE 4.6 mph - N/A   Mostly Cloudy
10:00 AM 50.0 °F - 39.2 °F 66% 30.18 in 30.0 mi SSE 6.9 mph - N/A   Mostly Cloudy
11:00 AM 53.6 °F - 37.4 °F 54% 30.15 in 30.0 mi ESE 4.6 mph - N/A   Scattered Clouds
12:00 PM 53.6 °F - 39.2 °F 58% 30.11 in 30.0 mi SE 6.9 mph - N/A   Mostly Cloudy
1:00 PM 55 °F - 39 °F 44% 30.06 in 28 mi SE 9.2 mph - -   Overcast
1:00 PM 55.4 °F - 39.2 °F 54% 30.06 in 30.0 mi SE 10.4 mph - N/A   Overcast
2:00 PM 55.4 °F - 41.0 °F 58% 30.03 in 30.0 mi SSE 11.5 mph - N/A   Overcast
3:00 PM 55.4 °F - 42.8 °F 63% 30.00 in 15.0 mi SSE 11.5 mph - N/A   Overcast
4:00 PM 55.4 °F - 41.0 °F 58% 29.97 in 15.0 mi SSE 15.0 mph - N/A   Overcast
4:11 PM 53.6 °F - 42.8 °F 67% 29.96 in 12.0 mi SE 18.4 mph - N/A Rain Light Rain Showers
5:00 PM 53.6 °F - 42.8 °F 67% 29.91 in 15.0 mi SSE 16.1 mph - N/A   Overcast
6:00 PM 55.4 °F - 42.8 °F 63% 29.88 in 15.0 mi SSE 16.1 mph 21.9 mph N/A   Overcast
7:00 PM 56 °F - 43 °F 52% 29.84 in 15 mi SSE 18.4 mph - -   Partly Cloudy
7:00 PM 55.4 °F - 42.8 °F 63% 29.84 in 15.0 mi SSE 20.7 mph - N/A   Overcast
8:00 PM 55.4 °F - 42.8 °F 63% 29.80 in 15.0 mi SSE 19.6 mph 26.5 mph N/A   Overcast
8:16 PM 55.4 °F - 42.8 °F 63% 29.80 in 15.0 mi SSE 21.9 mph 28.8 mph N/A Rain Light Rain Showers
9:00 PM 53.6 °F - 46.4 °F 77% 29.79 in 10.0 mi SSE 19.6 mph 25.3 mph N/A Rain Light Rain
10:00 PM 51.8 °F - 46.4 °F 82% 29.75 in 15.0 mi SSE 20.7 mph - N/A Rain Light Rain
11:00 PM 51.8 °F - 46.4 °F 82% 29.72 in 14.0 mi South 17.3 mph - N/A Rain Light Rain